sat.trackr.live / text

‹ back to catalog

KINEIS-4A

NORAD 63303 · 2025-056D

PAYLOAD ACTIVE UNKNOWN

§ Identity

Operator
Country
FR
Launch date
2025-03-18
Launch site
RLLB
Launch vehicle
Mass (kg)
RCS (m²)

External: N2YO · Heavens-Above · Gunter

§ Orbital elements

Epoch: 2026-05-25T04:38:29.284800Z

Period
97.81 min
Inclination
97.9080°
Eccentricity
0.0002012
Mean motion
14.72281494 rev/d
Perigee alt
652.4 km
Apogee alt
655.2 km
Semi-major
7,031.9 km
B*
2.1861e-4
RAAN
269.8575°
Arg perigee
46.8867°
Mean anomaly
313.2508°
Rev number
6,374

§ Raw data

KINEIS-4A1 63303U 25056D   26145.19339450  .00001333  00000+0  21861-3 0  99952 63303  97.9080 269.8575 0002012  46.8867 313.2508 14.72281494 63740

JSON: /api/v1/satellites/63303 · /tle

For live sub-satellite position, see the globe view (requires WebGL).

§ Visibility from observer

Set your observer location to see the next 7 days of passes ≥ 10°. The values pass through the URL so the page stays shareable.

No JS? Fill the form by hand. The geolocation button needs JavaScript.

§ Radio — SatNOGS DB

ModeDescriptionDownlinkUplink
BPSK PMT-A3 Mode U 400.651 MHz
FM S-band telemetry 2.261 GHz

2 transmitters · refreshed weekly from db.satnogs.org